Location: Cosy Dell
(34.2789°N, 117.4537°W)
Time: 23:27:57
(UTC+00:00)

Cosmos 1802 Rocket - Pass Details

Date: 14 July 2020
Orbit: 954 x 1012 km, 82.9° (Epoch: 12 August)

Event Time Altitude Azimuth Distance (km) Brightness Sun altitude
Exits shadow 09:47:10 56° 277° (W) 1,178 4.2 -28.2°
Maximum altitude 09:47:14 56° 279° (W) 1,178 4.2 -28.2°
Drops below altitude 10° 09:53:32 10° 357° (N) 2,794 7.1 -27.5°
Sets 09:56:09 0° 2° (N) 3,750 8.0 -27.2°
